This demonstration page uses our WeatherBlox Daily Observations layout. Learn more.

Left ArrowRight Arrow

Hourly Observations for September 27, 2021

Temp ( °F °C ) Dew Point ( °F °C ) Humidity (%) Winds ( mph kmh ) Pressure ( in mb ) Visibility ( mi km ) Precip ( " mm )
12:51 am 00:51 Clear 62 16.7 61 16.1 96 96 N N/A 29.94 1014 10 16 N/A
1:51 am 01:51 Clear 62 16.7 60 15.6 93 93 N N/A 29.95 1014 10 16 N/A
2:51 am 02:51 Mostly Cloudy 61 16.1 60 15.6 97 97 N N/A 29.95 1014 10 16 N/A
3:51 am 03:51 Mostly Cloudy 62 16.7 60 15.6 93 93 N N/A 29.95 1014 10 16 N/A
4:51 am 04:51 Clear 61 16.1 60 15.6 97 97 N N/A 29.95 1014 10 16 N/A
5:51 am 05:51 Cloudy 61 16.1 61 16.1 100 100 N N/A 29.95 1014 10 16 0.00 0.00
6:51 am 06:51 Mostly Cloudy 62 16.7 60 15.6 93 93 N N/A 29.97 1015 10 16 N/A
7:51 am 07:51 Cloudy 64 17.8 60 15.6 87 87 N N/A 29.99 1016 10 16 N/A
8:51 am 08:51 Partly Cloudy 67 19.4 60 15.6 79 79 WNW 5 7 29.99 1016 10 16 N/A
9:51 am 09:51 Mostly Cloudy 69 20.6 60 15.6 73 73 WNW 6 9 30.00 1016 10 16 N/A
10:51 am 10:51 Cloudy 70 21.1 61 16.1 73 73 WNW 10 17 29.99 1016 10 16 N/A
11:51 am 11:51 Mostly Cloudy 74 23.3 60 15.6 62 62 NNW 7 11 29.96 1015 10 16 N/A
12:51 pm 12:51 Cloudy 76 24.4 56 13.3 50 50 NNW 10 17 29.93 1014 10 16 N/A
1:51 pm 13:51 Cloudy 75 23.9 55 12.8 50 50 NNW 10 17 29.90 1013 10 16 N/A
2:51 pm 14:51 Cloudy 76 24.4 56 13.3 50 50 NW 9 15 29.88 1012 10 16 N/A
3:51 pm 15:51 Mostly Cloudy 77 25 56 13.3 48 48 WNW 9 15 29.86 1011 10 16 N/A
4:51 pm 16:51 Mostly Cloudy 75 23.9 57 13.9 54 54 WNW 6 9 29.86 1011 10 16 N/A
5:51 pm 17:51 Cloudy 75 23.9 55 12.8 50 50 W 6 9 29.85 1011 10 16 N/A
6:51 pm 18:51 Cloudy 72 22.2 58 14.4 61 61 S 6 9 29.86 1011 10 16 N/A
7:51 pm 19:51 Cloudy 71 21.7 60 15.6 68 68 N N/A 29.87 1011 10 16 N/A
8:51 pm 20:51 Cloudy 68 20 60 15.6 76 76 NE 3 6 29.87 1012 10 16 N/A
9:51 pm 21:51 Mostly Cloudy 69 20.6 60 15.6 73 73 E 5 7 29.86 1011 10 16 N/A
10:51 pm 22:51 Cloudy with Light Rain 66 18.9 62 16.7 87 87 N 9 15 29.87 1012 10 16 0.00 0.00
11:51 pm 23:51 Cloudy with Light Rain 65 18.3 62 16.7 90 90 WNW 7 11 29.86 1011 10 16 0.00 0.00

Powered by AerisWeather